GFSNGP_700_spd_045.txt.gz
Wind_Speed
15 16 18 18 20 21 25 33 27 42 41 39 37 36 30 36 40 33 19 14 19 31 35 37 27 19 20 17 17 21 22 22 22 24 25 25 25 25 28 27 31 28 34 34
11 5 7 13 13 18 20 22 30 32 39 30 32 28 29 35 30 31 18 17 14 16 13 17 19 17 16 19 22 18 21 20 23 25 25 25 28 27 28 34 28 31 38 27
4 3 12 11 3 4 12 19 17 21 32 30 26 28 31 34 23 20 13 16 14 15 16 19 19 14 19 19 23 22 20 24 26 28 27 28 28 29 31 25 32 29 21 14
6 8 1 5 8 7 19 19 12 19 30 21 25 28 28 25 18 16 9 8 14 15 16 14 14 15 19 21 21 20 22 25 26 24 26 25 26 27 28 26 23 17 14 16
3 7 11 5 5 14 20 18 7 27 21 19 18 20 17 9 12 11 8 4 6 10 11 11 11 13 15 17 15 17 21 25 30 26 25 29 29 23 14 10 10 9 16 20
1 3 3 7 10 17 15 6 25 27 15 15 14 21 15 11 11 7 6 6 6 7 10 12 14 17 17 16 18 16 18 25 28 26 21 14 8 6 8 6 10 13 17 21
17 7 11 2 8 14 7 14 26 18 13 14 17 17 23 22 11 12 11 11 8 7 4 3 8 14 17 19 18 16 12 13 15 11 8 7 4 5 7 7 12 16 18 21
13 7 9 4 12 12 17 19 19 8 10 10 14 18 13 14 19 22 11 12 10 7 6 3 7 12 11 17 9 14 16 11 9 7 3 2 4 4 7 11 14 17 19 22
9 3 5 8 11 10 12 14 14 8 6 11 17 10 15 17 14 16 19 21 20 18 21 23 24 23 19 20 17 14 14 11 7 5 2 1 3 6 9 11 14 17 21 24
8 0 5 8 8 10 9 9 13 11 8 9 11 12 7 10 15 16 16 17 18 16 16 19 21 21 20 17 14 11 10 8 4 1 4 6 7 9 12 16 18 21 24 27
17 10 11 7 7 8 7 8 12 10 8 7 6 5 5 7 8 10 11 12 16 17 17 16 18 17 15 11 11 10 7 6 6 6 7 9 12 14 17 19 21 24 27 31
17 15 14 12 10 10 9 10 9 9 8 7 7 2 0 4 5 6 7 9 10 12 12 10 12 10 9 9 9 8 7 7 8 10 11 13 15 17 19 22 25 28 32 35
14 16 17 18 17 14 12 10 10 8 8 4 2 2 3 2 1 2 4 6 8 10 8 7 7 8 9 9 9 9 9 9 10 11 12 14 16 19 22 25 29 33 38 41
17 15 15 14 11 9 10 11 9 7 6 7 5 2 5 5 4 1 1 3 5 4 4 3 6 6 6 6 6 7 7 9 10 11 13 15 18 21 24 29 34 38 41 42
23 23 19 15 13 13 11 10 11 9 11 4 8 6 4 5 4 3 3 3 3 1 2 1 2 3 4 5 5 6 8 9 10 13 15 18 22 26 31 35 39 41 42 43
10 9 11 15 16 16 14 11 12 14 5 5 7 7 7 6 6 6 6 4 4 3 3 2 2 3 4 5 6 7 8 11 13 16 19 22 26 31 36 39 42 44 44 43
9 9 8 7 8 8 7 9 13 13 8 8 8 8 6 4 5 6 5 5 4 4 4 3 3 4 5 5 6 8 10 13 16 19 22 26 31 35 38 42 42 41 40 38
21 10 6 7 8 8 8 9 6 5 10 14 10 6 4 4 6 7 6 6 6 5 4 4 5 5 5 6 8 10 12 15 18 22 26 30 34 38 41 41 40 37 33 29
12 15 9 9 13 13 12 10 7 5 7 7 7 4 2 5 7 8 8 7 6 5 5 5 5 5 6 7 9 10 13 16 20 24 29 33 36 39 39 38 34 30 27 23
10 10 4 4 8 9 7 4 7 4 6 7 6 4 4 4 7 8 8 7 6 6 6 6 6 6 7 8 9 12 15 18 22 27 31 34 37 38 36 33 29 25 22 17
1 8 5 1 1 3 2 1 2 7 8 11 9 5 3 4 7 8 8 7 7 7 6 7 7 7 7 8 11 14 17 21 25 29 32 34 36 35 31 28 25 19 13 9
10 9 10 11 11 11 11 12 12 12 12 13 11 7 4 5 7 8 8 8 8 8 7 7 7 8 8 10 12 15 19 23 27 30 33 34 33 31 27 24 18 11 7 7
5 10 15 15 14 15 14 13 13 13 14 15 14 13 11 10 10 11 10 10 10 8 8 8 8 9 10 12 14 17 21 24 28 31 32 32 30 28 24 19 12 8 6 5
11 9 9 12 15 16 15 14 14 15 18 19 20 19 20 14 11 12 12 11 10 9 9 8 9 10 11 13 15 19 22 26 29 31 32 30 28 25 20 15 10 6 4 3
14 13 12 11 12 14 16 17 17 18 19 22 23 24 24 18 14 15 15 13 11 10 9 9 10 12 13 15 17 20 23 28 30 31 31 28 27 23 18 13 9 6 4 3
14 15 14 14 14 13 15 17 18 18 21 23 24 25 25 19 16 15 14 13 12 11 10 9 11 13 14 16 18 21 25 29 31 31 29 27 25 20 16 11 8 5 4 4
23 19 17 16 15 14 15 16 18 19 21 23 24 27 24 18 17 16 16 15 13 11 8 9 12 14 15 17 19 22 26 29 30 30 28 25 22 18 13 9 6 5 5 5

GFSNGP_700_spd_048.txt.gz
Wind_Speed
13 10 10 12 13 15 24 28 26 35 35 29 32 29 28 31 32 34 28 20 13 16 18 21 29 34 34 35 21 18 19 17 20 18 23 23 28 28 29 29 29 28 30 33
9 11 16 22 24 24 26 28 35 30 33 22 35 26 31 30 28 22 20 18 9 12 11 11 13 13 16 22 17 14 13 15 16 24 23 22 24 22 27 27 29 34 31 38
3 4 8 13 10 15 12 17 21 26 26 27 27 29 29 24 15 15 15 13 7 7 10 12 13 10 7 7 6 10 12 14 20 19 20 20 19 25 30 30 31 29 32 25
4 5 1 5 2 3 10 15 14 14 20 22 21 22 20 18 16 11 9 8 6 7 7 7 6 5 5 9 9 14 18 16 18 18 19 24 27 28 35 31 29 26 21 17
2 5 11 3 4 6 14 13 5 22 21 15 14 17 19 15 12 7 4 6 5 6 9 11 8 5 4 7 10 16 12 12 15 20 19 24 30 26 17 17 12 10 10 13
1 2 3 4 4 8 10 3 20 20 14 13 15 13 20 14 15 9 5 2 1 4 5 7 7 6 6 7 10 10 8 11 15 16 16 15 10 9 7 5 6 10 13 15
12 6 9 6 6 8 3 10 17 11 10 12 13 13 15 18 18 12 14 11 10 8 7 5 2 5 7 4 3 6 2 3 9 6 9 10 9 8 7 7 7 9 13 16
11 6 9 5 7 7 10 12 16 9 10 15 9 14 16 16 19 17 15 10 6 5 3 2 5 6 9 5 9 12 13 15 15 15 12 7 5 2 3 6 9 13 16 18
9 3 5 9 6 8 10 9 12 12 8 10 11 11 13 16 16 15 17 19 19 19 22 23 21 19 20 20 20 18 18 15 12 9 6 3 1 3 7 9 11 14 17 20
8 1 2 8 12 8 10 9 10 12 7 6 7 7 7 10 12 14 15 17 18 18 18 20 23 22 20 19 16 15 12 11 8 5 3 4 5 5 7 10 13 16 19 22
18 14 12 10 8 9 11 10 9 12 10 6 5 5 2 4 5 9 12 15 16 14 13 14 15 15 14 12 12 11 9 7 5 4 4 4 5 7 10 13 16 20 24 29
18 16 17 18 15 14 14 12 11 12 10 10 7 6 4 4 0 6 7 8 12 11 12 10 12 10 11 11 10 8 7 6 5 4 5 7 11 13 16 18 21 25 30 35
22 23 21 18 17 16 14 11 11 11 10 8 7 5 8 7 5 3 8 9 10 9 8 6 10 10 10 9 7 8 7 7 8 10 11 12 14 16 20 24 28 33 38 42
18 19 19 15 14 13 10 8 10 11 10 7 9 10 9 9 8 3 7 6 6 6 2 4 7 9 8 8 8 8 9 9 10 11 13 15 17 21 25 29 33 38 42 43
21 21 20 24 24 16 13 12 10 11 11 13 10 7 4 6 6 5 5 5 4 2 2 4 6 6 6 6 7 8 9 10 11 12 14 17 20 24 28 32 37 40 43 44
13 15 13 13 15 18 19 16 14 13 13 12 7 9 8 7 8 8 7 4 3 1 1 1 3 4 4 6 7 7 8 10 12 14 16 19 23 27 31 36 40 42 43 39
14 11 9 8 10 11 14 15 15 15 14 11 10 11 9 7 7 7 6 5 4 4 3 2 3 3 4 6 6 7 9 10 12 15 18 22 26 30 34 38 40 41 39 33
20 21 13 10 8 8 10 11 14 15 12 13 14 13 9 7 7 7 6 6 5 5 4 4 4 4 5 6 7 8 9 11 13 16 20 24 28 32 35 37 38 36 31 23
11 16 21 16 12 12 13 14 12 8 8 12 11 8 7 7 8 9 9 8 7 7 6 5 5 6 6 6 7 8 10 12 15 19 23 27 30 33 35 36 35 30 21 13
5 7 14 16 16 16 21 12 12 11 10 9 9 7 4 6 7 9 9 9 10 8 7 6 6 7 6 7 8 10 11 14 17 21 25 28 31 33 33 33 30 23 13 8
5 8 5 6 7 5 3 7 10 10 6 9 11 10 5 5 8 9 10 10 10 9 8 8 7 7 8 9 10 11 13 16 19 23 26 29 31 32 32 31 26 17 11 7
5 4 4 4 5 6 6 6 8 11 13 14 15 12 8 5 6 8 10 10 10 10 9 9 9 9 9 10 11 12 14 18 21 24 28 30 31 31 31 28 23 16 10 8
7 7 10 15 15 14 15 16 15 15 15 16 17 16 13 10 9 9 10 11 11 11 10 10 10 10 11 11 12 14 16 19 22 26 29 31 31 30 29 25 21 16 11 9
9 9 9 10 11 14 16 17 16 17 19 20 21 22 20 17 17 13 13 13 13 13 12 12 11 11 12 12 13 16 18 21 24 28 30 31 31 30 27 23 20 15 12 10
12 12 12 12 13 13 14 16 18 19 20 21 23 24 24 24 20 18 17 16 16 15 14 13 12 12 12 13 15 17 19 22 25 29 31 31 31 29 26 22 18 15 12 10
21 19 18 17 16 16 16 17 18 19 21 21 23 25 27 27 25 19 19 17 18 16 15 14 13 12 12 15 16 17 19 22 26 29 30 30 29 26 23 20 16 13 10 10
33 31 28 27 24 20 19 18 19 20 21 23 24 27 28 28 26 17 19 19 17 17 16 15 13 13 15 17 17 17 20 23 27 29 29 28 26 24 20 17 13 10 10 10

GFSNGP_700_spd_051.txt.gz
Wind_Speed
14 8 8 9 10 15 25 27 16 24 31 22 29 28 30 31 33 29 24 22 24 13 10 11 12 12 13 20 25 25 26 21 18 18 18 21 23 27 27 31 32 33 34 32
9 12 17 21 19 19 21 22 30 27 28 23 26 28 25 27 20 16 16 19 14 8 8 11 13 12 13 13 12 13 18 18 17 16 14 14 19 24 26 36 32 31 27 30
3 5 6 12 10 20 19 20 18 23 19 22 21 20 22 19 17 17 14 15 7 3 5 7 9 12 12 10 7 8 10 14 14 14 19 19 19 16 17 23 29 34 24 31
4 3 1 1 1 3 5 9 13 11 15 17 18 17 21 16 18 12 10 11 5 3 6 6 10 10 7 4 8 4 5 7 9 17 10 11 16 17 22 26 26 28 24 22
3 4 11 5 6 3 8 8 4 12 13 11 13 15 12 15 13 12 10 11 8 5 5 4 2 4 3 4 5 6 8 10 7 1 5 13 10 17 12 11 16 11 15 9
2 3 3 7 6 4 8 1 15 14 9 8 11 14 14 14 9 11 14 7 7 7 6 4 3 2 3 8 9 7 6 6 4 3 2 9 8 4 5 6 6 5 5 8
10 6 8 8 5 5 1 5 12 12 7 8 8 13 11 12 13 12 8 9 8 7 6 6 3 3 3 3 4 4 11 8 8 8 2 13 10 9 8 5 4 2 6 9
12 6 8 7 3 2 5 8 8 10 6 8 8 10 15 15 11 12 15 16 14 4 1 4 8 9 7 5 8 15 18 18 18 16 13 11 9 6 2 2 4 6 9 12
10 2 3 4 6 6 6 7 7 9 9 8 6 7 9 14 14 13 14 15 17 20 17 13 13 16 15 16 18 17 16 15 13 11 9 7 5 4 4 5 7 9 13 17
7 1 6 5 9 13 9 7 8 7 8 7 7 5 4 7 11 9 10 14 15 15 15 17 19 18 16 14 14 13 12 11 9 8 7 5 4 4 6 9 12 15 17 20
17 12 14 8 5 8 9 10 10 9 9 7 7 8 7 1 4 8 7 8 10 8 9 10 13 14 12 11 10 10 9 7 7 7 7 7 7 9 10 11 13 17 23 27
21 17 16 14 15 16 16 15 14 11 10 8 8 8 9 8 3 6 3 6 6 7 7 8 9 9 9 9 7 6 6 6 6 7 7 8 9 10 13 16 20 24 27 32
24 22 22 20 18 18 16 15 13 12 11 9 8 9 10 9 12 7 5 7 3 4 4 5 7 7 6 5 4 4 4 5 5 6 8 10 11 13 16 19 23 27 32 37
18 19 19 19 19 18 15 13 12 11 11 9 8 12 13 11 14 10 11 11 5 5 3 6 5 5 4 4 4 3 3 5 7 9 9 10 12 15 19 23 28 33 36 39
20 22 20 19 20 21 23 20 16 13 11 11 12 12 11 6 13 10 11 8 7 8 5 5 5 4 4 3 3 4 5 6 7 7 9 12 15 19 23 27 31 34 37 38
18 17 17 18 19 19 18 17 19 18 15 14 13 10 8 8 10 13 10 10 11 9 4 4 3 1 1 2 3 4 5 5 7 9 12 15 19 23 26 30 33 35 36 35
16 17 17 16 15 14 14 15 16 17 17 16 13 14 13 12 12 14 16 13 10 7 5 4 2 2 1 3 4 5 6 7 9 11 14 18 22 26 29 31 34 35 35 30
19 18 19 16 15 13 11 11 11 13 15 15 16 17 16 12 11 11 12 11 8 7 5 4 4 4 4 4 6 7 7 9 11 14 17 21 24 27 30 32 34 34 33 24
10 13 18 22 22 15 14 14 15 17 20 18 16 18 14 12 11 12 12 10 9 7 7 6 6 6 6 6 7 8 9 11 13 16 20 23 26 29 31 32 33 33 30 21
6 6 8 14 19 21 17 17 19 19 11 12 14 13 10 8 10 11 11 11 10 10 9 9 8 7 7 8 9 9 11 13 15 18 21 24 27 30 32 33 33 32 28 20
6 3 7 9 6 7 14 18 17 16 15 14 12 12 11 10 9 9 10 10 10 11 11 10 9 9 9 10 10 10 12 14 16 19 22 25 28 31 33 32 32 30 26 21
8 9 8 3 2 4 7 7 12 12 12 15 15 15 14 9 8 10 12 13 13 12 12 12 11 11 11 11 11 12 13 15 17 20 23 26 30 33 33 33 32 29 24 20
3 3 4 6 10 14 12 12 15 17 19 17 17 18 16 15 13 12 11 12 13 13 14 14 13 13 12 12 13 13 15 16 18 21 24 28 31 33 33 32 30 27 23 19
8 8 8 8 9 11 13 15 16 17 15 17 20 23 23 21 19 17 17 18 16 15 16 16 15 14 14 14 14 15 16 17 19 22 26 29 32 33 32 30 28 25 21 17
15 15 14 13 13 13 14 15 17 20 21 22 23 25 26 27 26 23 23 21 20 18 17 17 17 16 15 14 14 15 17 18 20 24 27 30 32 33 31 28 25 22 18 14
29 27 25 24 23 21 18 17 17 19 21 23 25 26 29 30 29 30 27 23 21 23 20 19 18 17 16 15 15 17 18 19 21 24 28 31 32 31 29 25 21 17 15 13
33 33 33 33 34 32 29 25 22 21 21 23 25 27 29 32 31 31 31 25 18 22 20 19 19 18 17 16 17 17 18 20 22 26 29 31 31 29 26 21 17 15 13 13

GFSNGP_700_spd_054.txt.gz
Wind_Speed
10 8 7 5 7 12 22 24 14 14 21 15 21 24 23 26 27 26 23 22 20 13 7 10 12 13 16 16 16 17 19 21 20 23 20 21 22 20 21 23 24 27 28 29
6 9 13 17 16 15 15 19 25 21 21 15 19 19 22 23 23 20 21 19 17 10 8 11 10 8 11 14 15 14 12 11 13 16 17 17 15 13 13 20 16 24 24 26
2 4 7 12 9 15 21 20 17 22 13 16 16 16 20 21 19 19 15 14 13 10 9 9 8 10 9 9 9 13 10 11 10 10 11 12 9 13 11 16 14 26 21 20
4 3 1 2 3 2 3 4 9 11 10 14 14 16 19 20 22 15 15 13 11 9 7 9 10 11 8 10 9 6 9 11 4 9 13 11 17 11 13 14 14 19 18 24
2 4 11 6 6 3 2 2 2 7 9 9 13 16 14 18 17 12 13 11 11 11 9 10 9 8 6 5 9 7 9 9 11 4 6 8 5 2 5 5 12 7 14 10
3 2 4 4 8 4 6 5 7 10 8 9 12 12 11 14 14 13 10 11 9 6 6 9 9 6 6 6 6 5 1 3 5 4 5 7 6 9 8 4 5 7 4 1
10 6 9 9 6 3 2 2 9 9 9 10 6 10 13 16 13 14 13 13 8 6 4 8 3 2 4 8 7 4 6 8 12 13 15 16 16 14 13 10 8 5 5 4
12 6 9 9 10 4 1 4 6 8 9 6 8 9 11 15 14 12 12 13 14 2 3 4 8 8 12 12 11 16 18 18 18 18 16 14 13 11 9 7 7 5 5 6
10 4 4 11 2 4 5 5 5 7 8 7 7 8 8 12 14 12 11 11 14 16 11 8 10 14 14 13 16 17 16 16 15 13 11 10 10 9 8 7 5 6 8 12
8 8 13 11 6 8 10 9 7 6 9 9 7 9 10 8 10 13 8 8 10 13 13 12 12 15 13 12 13 13 12 11 10 10 9 8 7 5 5 6 7 10 14 18
17 15 13 8 4 4 7 10 11 11 10 10 10 8 9 9 7 9 10 5 5 6 7 7 8 9 8 8 9 9 8 7 7 6 6 5 6 6 7 9 12 15 19 24
21 16 16 12 13 13 13 13 14 13 11 11 11 10 10 8 11 7 9 3 3 3 7 6 5 6 6 6 5 5 5 5 5 4 4 5 6 8 10 12 16 20 24 27
27 25 23 21 19 18 15 13 13 12 11 13 12 11 11 11 10 11 9 7 7 4 2 2 3 4 4 3 3 3 3 2 3 3 4 4 7 10 13 17 21 24 27 30
19 19 19 19 19 19 18 16 15 13 13 12 11 10 11 13 10 16 14 8 8 6 2 3 3 2 2 2 1 0 1 1 1 2 4 7 11 15 17 20 23 27 29 32
24 21 21 19 20 21 20 20 20 21 18 14 13 13 13 13 10 14 15 12 12 8 8 5 5 4 4 3 3 2 2 2 3 5 7 10 13 15 19 22 25 28 31 32
19 21 22 20 19 20 20 19 19 18 18 18 16 14 13 10 13 16 13 12 11 13 11 8 8 7 6 5 3 3 3 4 5 7 9 11 14 17 21 24 27 30 31 32
22 20 23 24 24 18 17 15 15 16 18 17 17 16 15 15 12 15 18 14 13 14 11 9 9 8 6 5 5 4 5 6 7 8 10 13 16 19 23 26 29 30 31 32
18 19 22 24 23 19 16 13 12 11 12 14 14 15 16 18 18 18 16 18 18 14 9 9 10 8 7 7 7 6 7 8 9 10 12 15 18 21 24 28 30 31 32 31
10 10 14 19 22 22 19 16 14 15 15 14 16 18 18 17 19 17 15 15 16 12 11 11 11 9 9 9 8 8 9 10 11 12 14 17 20 23 27 31 33 33 33 31
3 4 8 11 16 20 23 23 17 17 17 20 21 16 14 16 11 10 13 14 14 15 15 13 12 11 11 10 10 10 11 11 12 14 17 19 22 25 29 32 34 34 34 32
11 10 5 9 6 9 12 19 21 19 17 15 14 16 14 11 11 12 12 12 13 14 13 13 13 13 13 12 12 12 12 13 14 16 18 21 24 27 30 34 36 36 34 31
9 12 12 12 10 4 4 5 9 15 16 15 15 15 16 16 15 12 12 13 16 15 15 16 15 15 14 13 13 13 14 14 15 17 19 22 25 29 33 36 36 36 32 29
4 3 6 7 7 8 9 8 8 8 11 13 17 18 19 21 17 15 14 14 14 14 16 17 17 16 15 15 15 15 15 15 16 18 20 23 26 30 34 36 36 34 30 26
8 8 8 8 8 8 8 10 12 13 13 13 16 19 21 25 25 21 19 20 19 19 19 19 18 18 17 17 16 16 16 16 17 19 21 24 27 31 35 36 34 31 27 23
19 19 18 19 19 18 17 15 14 15 16 17 19 21 21 24 24 26 26 26 24 23 23 21 19 19 18 18 18 17 17 17 18 20 22 25 29 33 36 35 32 27 24 20
31 32 32 32 31 31 29 27 25 23 20 19 20 21 23 24 26 28 30 30 30 27 24 24 25 21 20 20 19 18 19 18 19 20 23 25 29 33 35 33 29 25 21 19
26 25 25 26 26 26 27 30 32 33 30 27 23 22 23 25 26 30 33 33 32 29 24 21 24 22 22 21 20 19 21 21 20 22 23 25 30 33 33 31 26 23 20 19

GFSNGP_700_spd_060.txt.gz
Wind_Speed
6 5 3 4 8 17 24 25 9 5 10 11 10 13 14 17 16 18 20 16 12 10 10 10 11 13 13 14 14 17 19 19 20 19 17 16 16 17 22 26 25 25 27 28
7 9 10 14 14 13 14 20 25 20 15 9 7 12 13 14 16 19 19 15 8 9 8 9 12 14 12 11 12 13 12 11 12 13 12 14 15 17 26 19 23 20 29 23
3 5 7 13 17 22 20 19 13 15 4 7 10 9 13 16 18 16 15 11 7 9 10 10 12 13 8 8 9 8 12 13 14 12 12 8 12 16 14 11 12 13 11 11
3 2 4 4 3 2 8 13 15 12 7 9 7 8 11 11 13 11 13 10 10 9 12 12 11 11 9 10 9 9 12 14 12 5 10 9 12 16 12 14 9 7 4 5
2 5 8 6 6 6 6 5 7 5 4 5 4 9 9 9 11 10 11 10 12 12 11 9 13 14 12 10 8 7 7 8 10 5 6 7 8 11 6 4 4 3 6 5
3 3 3 3 10 9 6 6 6 2 2 4 5 4 7 6 10 11 12 13 14 13 7 5 7 6 5 6 7 3 3 7 9 7 5 7 8 8 10 12 12 11 10 8
10 6 7 9 11 10 6 6 6 4 1 3 5 6 8 9 10 11 11 13 14 9 2 4 3 3 1 2 3 4 6 9 10 12 13 13 12 11 10 9 8 7 6 4
9 7 8 11 14 11 9 8 7 4 3 2 6 6 7 8 12 11 11 11 12 8 2 4 3 7 8 8 9 10 12 11 10 9 9 8 8 8 7 7 6 5 5 5
9 4 5 11 14 16 13 10 8 6 5 4 4 7 10 10 10 12 11 9 7 6 7 8 8 8 10 9 8 9 8 7 7 7 7 6 6 5 4 3 3 5 7 9
8 6 11 11 14 14 14 9 8 10 10 8 7 8 8 8 10 14 10 11 5 2 3 6 6 6 7 6 4 5 6 6 5 5 4 4 3 3 3 4 6 9 11 13
19 16 15 14 16 21 12 9 7 8 10 10 10 10 10 10 10 12 12 10 9 2 2 3 4 4 4 4 3 3 4 4 3 2 1 1 1 2 4 6 9 12 14 16
15 17 15 17 16 13 17 12 9 9 11 11 11 12 12 13 15 10 10 12 9 5 4 5 5 5 4 4 4 3 3 3 2 2 2 3 4 5 7 10 12 15 17 18
13 14 19 21 18 17 18 16 15 14 13 12 12 12 14 14 15 11 10 14 12 11 6 7 6 6 5 5 6 6 5 5 4 4 4 5 6 8 9 11 13 16 18 20
16 15 13 16 20 21 21 20 19 18 17 16 15 14 14 15 14 10 11 13 16 13 9 8 8 8 7 7 8 8 6 6 5 6 7 8 9 10 12 14 16 18 20 23
20 20 20 17 16 16 19 19 19 20 20 20 19 20 18 16 14 13 14 15 18 17 12 10 9 9 9 9 9 9 8 8 8 9 9 10 10 12 14 16 18 21 23 25
16 18 21 23 24 25 25 22 23 21 20 19 20 20 21 21 19 16 13 16 19 16 14 12 9 10 10 10 10 11 11 11 11 11 11 11 12 14 15 17 20 22 24 27
17 15 19 19 23 22 18 22 20 18 15 14 15 17 18 20 19 19 15 17 17 20 18 15 15 15 13 12 12 12 13 13 13 13 13 13 14 15 17 19 21 24 26 28
14 16 18 18 19 21 21 21 20 18 17 18 12 12 13 17 18 18 16 20 20 25 22 15 16 16 15 15 14 14 15 15 15 15 15 15 16 17 19 21 23 25 28 29
12 12 9 10 11 14 18 20 19 18 22 18 14 17 17 17 19 20 18 20 25 23 29 21 15 16 16 16 16 17 17 17 16 17 17 17 17 18 20 22 24 26 29 31
1 3 6 8 9 8 10 13 16 19 21 21 21 18 17 19 20 19 22 22 21 27 27 29 24 19 19 19 19 20 19 18 18 18 19 18 19 19 21 23 25 27 29 31
12 12 13 12 4 4 4 4 7 13 19 23 24 23 23 20 20 22 20 20 17 17 19 20 23 23 19 18 20 20 20 20 20 20 20 20 20 21 22 24 26 28 30 32
3 6 9 12 14 15 13 8 3 2 5 9 14 15 16 18 17 16 14 14 16 17 18 20 21 21 20 22 22 21 23 22 22 21 21 21 22 22 23 25 27 29 30 31
2 2 2 3 4 6 7 7 9 8 8 8 9 13 12 15 15 16 16 18 19 19 20 20 21 22 23 21 21 24 25 24 23 22 22 23 24 24 25 26 27 29 30 31
11 11 11 12 12 13 13 14 15 15 14 12 11 11 9 11 11 13 19 23 25 25 24 26 26 25 26 26 27 27 27 25 25 24 24 24 25 25 25 27 28 29 30 30
19 19 20 20 22 24 25 24 24 25 25 24 22 19 17 17 19 21 21 21 21 21 25 28 29 30 29 29 30 30 30 29 28 28 28 27 28 27 27 27 28 29 29 30
23 24 26 27 26 23 20 19 19 19 20 22 24 26 26 25 24 22 22 22 22 23 26 28 29 31 32 35 35 33 34 36 33 31 29 31 35 31 28 28 28 27 29 30
23 22 22 21 20 19 18 17 17 18 18 19 20 21 22 24 27 29 28 27 26 24 25 28 30 31 32 34 30 31 32 30 30 31 34 33 30 29 30 29 26 26 28 28

GFSNGP_700_spd_063.txt.gz
Wind_Speed
7 6 5 6 10 17 26 24 10 3 7 8 11 9 11 16 18 20 21 20 19 15 13 10 8 9 11 12 15 17 16 15 17 18 21 22 20 21 20 22 24 29 25 26
7 9 11 14 13 13 17 22 25 19 13 13 13 15 14 16 16 20 21 18 17 11 12 11 10 9 9 10 12 15 16 16 15 19 22 17 18 16 15 17 16 21 16 17
3 7 7 12 18 22 20 17 19 18 14 7 10 13 12 15 16 15 13 14 12 10 12 13 12 12 11 10 11 14 13 15 15 16 13 10 10 10 17 13 15 15 12 16
3 3 3 5 4 4 18 17 18 15 11 11 13 11 11 12 11 9 9 10 9 8 11 13 15 14 12 11 13 15 14 12 10 8 8 10 8 10 14 10 12 8 7 10
3 6 12 8 8 6 6 4 11 10 11 13 10 7 12 10 8 8 8 9 10 11 12 13 15 16 16 13 14 11 8 6 6 7 5 10 6 8 9 9 9 5 4 5
2 3 3 2 6 7 6 4 8 8 8 9 8 5 8 7 6 9 8 10 12 12 11 9 7 7 8 8 10 5 5 4 5 7 9 11 12 10 10 12 12 10 10 9
10 6 8 9 9 10 4 6 11 8 7 6 7 6 6 9 9 10 10 9 11 12 4 3 4 4 3 4 3 3 4 7 7 8 8 7 7 7 7 8 8 8 8 7
11 6 8 7 14 10 10 9 11 10 8 6 6 8 8 8 9 11 11 8 9 9 4 2 2 2 5 5 5 7 8 5 5 4 4 4 4 5 5 5 6 6 7 9
11 5 11 7 17 21 17 14 13 12 9 7 8 7 9 9 11 10 10 8 5 6 3 2 4 6 7 6 4 3 3 2 2 1 1 2 1 2 3 4 6 8 10 12
8 6 13 9 14 16 16 18 14 12 12 11 10 9 9 9 9 9 9 7 6 3 2 2 3 3 3 5 3 3 2 3 3 2 1 1 1 2 4 6 8 10 12 14
16 14 13 11 13 16 18 15 18 14 14 14 14 13 12 11 12 10 9 8 5 5 5 6 6 5 5 5 5 4 5 5 4 4 3 4 4 5 7 8 11 13 16 18
9 9 12 15 17 18 19 19 18 14 12 12 13 13 14 13 13 15 14 8 9 8 6 8 9 8 8 8 7 6 6 6 6 6 6 6 7 8 9 11 13 15 17 19
22 20 16 20 20 18 19 14 22 17 15 15 14 14 14 13 14 15 13 11 12 12 12 9 11 11 11 10 9 9 8 8 8 8 8 9 9 10 11 13 15 17 18 20
19 17 17 19 19 23 25 22 20 19 19 19 19 18 17 16 15 14 12 14 16 11 15 13 11 12 12 12 11 10 10 9 10 10 10 10 11 12 14 15 16 18 19 21
25 23 24 23 21 17 18 20 22 22 23 23 22 22 22 20 19 15 17 17 17 16 17 18 11 13 13 13 13 12 12 11 11 11 11 12 13 14 16 17 18 20 21 23
21 21 22 23 25 25 24 24 25 25 27 25 24 24 24 24 23 22 20 19 17 18 17 21 18 13 13 13 14 14 14 13 12 12 13 14 15 16 17 18 19 20 22 24
21 18 17 17 20 22 24 28 30 28 27 22 23 21 20 22 22 20 20 20 19 18 18 20 21 18 16 14 14 15 15 15 14 14 15 16 16 18 18 19 20 22 24 26
20 16 17 18 20 21 21 21 20 22 26 25 21 20 18 16 18 19 23 23 22 20 22 24 26 21 19 18 16 16 15 16 16 17 17 17 18 19 20 21 22 23 25 27
11 14 14 13 12 12 14 17 20 21 23 22 23 21 20 19 18 19 22 23 22 23 24 26 29 25 21 21 18 17 16 16 18 19 19 19 20 21 21 22 23 24 26 28
3 5 7 9 10 10 11 12 13 16 20 21 23 25 23 22 20 22 24 22 23 24 26 26 32 33 25 23 21 21 21 19 19 21 21 22 22 22 23 24 24 25 27 29
11 12 11 11 8 1 6 9 7 8 14 19 23 23 25 24 23 25 20 23 26 27 26 26 28 32 31 29 26 24 21 20 20 23 23 23 24 24 24 25 25 26 28 29
4 5 5 6 8 11 13 14 12 6 3 5 9 13 19 21 21 20 22 21 23 21 20 17 15 18 21 26 26 28 24 21 23 23 25 26 26 25 25 25 26 27 28 29
5 4 3 3 4 5 6 7 7 8 10 10 10 10 9 13 13 14 15 17 17 16 16 17 17 20 23 26 28 27 25 26 25 25 26 28 28 27 28 28 29 29 29 31
12 12 13 13 14 15 15 16 18 19 19 20 18 15 13 12 10 11 11 12 17 20 20 21 23 25 27 29 28 27 26 26 28 28 29 30 29 32 36 34 35 34 35 34
19 20 21 21 22 22 24 26 26 25 25 25 25 24 23 22 20 19 19 21 22 22 20 21 22 24 26 29 31 30 31 33 33 31 32 36 39 38 38 35 34 33 34 34
22 24 24 24 25 25 23 21 19 18 18 19 19 19 21 23 25 26 27 26 24 22 22 24 26 27 27 28 30 32 34 37 35 35 37 38 36 38 36 30 28 31 31 31
19 19 19 19 20 20 19 18 18 19 19 18 19 20 20 21 22 23 25 27 29 29 28 27 27 28 28 27 30 32 32 33 32 32 33 33 33 35 32 25 27 29 28 29

GFSNGP_700_spd_066.txt.gz
Wind_Speed
6 5 5 5 10 18 24 22 11 6 11 9 22 16 9 19 15 16 18 22 20 20 18 14 13 11 10 10 11 12 13 13 14 16 18 18 19 19 17 20 21 20 22 25
9 11 10 13 13 14 20 22 27 16 16 17 17 17 18 18 14 17 20 19 17 19 15 13 13 12 11 10 10 9 11 12 12 15 18 18 14 13 17 16 17 13 16 14
3 5 9 14 16 22 20 18 20 28 26 16 21 22 19 15 15 16 15 13 14 13 11 12 14 14 14 12 11 10 12 13 14 13 12 8 10 10 10 11 10 12 11 10
3 3 2 4 6 6 17 19 18 14 18 10 18 16 13 13 14 12 11 10 10 9 10 11 14 16 16 15 13 12 13 10 10 7 6 6 7 7 9 7 9 9 8 10
4 7 10 14 8 7 5 6 17 16 16 17 17 13 10 12 11 10 9 9 10 11 12 14 15 16 17 15 13 11 10 8 6 7 5 4 4 4 7 10 13 12 12 12
6 2 3 4 5 4 6 3 4 14 15 14 11 9 5 6 7 8 9 10 11 12 12 12 10 5 6 7 7 7 6 5 1 3 7 6 6 7 7 9 11 9 9 10
9 6 7 10 8 7 5 7 9 10 11 9 9 8 7 6 8 9 9 10 9 9 6 5 5 5 5 5 4 3 5 6 6 5 4 4 4 5 5 5 5 6 7 8
12 7 9 8 6 11 9 8 11 12 10 9 7 9 9 8 8 9 10 8 8 7 5 2 2 2 3 5 6 8 8 6 4 2 1 2 2 3 3 3 4 6 8 11
10 6 7 6 10 14 15 10 10 11 11 11 10 8 8 9 10 10 9 7 7 6 4 2 2 3 5 6 7 6 5 3 2 1 1 1 2 3 3 4 6 8 10 12
8 8 14 14 11 12 15 15 15 16 16 15 12 9 9 9 10 9 8 10 7 6 5 2 2 3 3 4 4 4 3 2 3 3 4 3 4 4 5 6 8 10 12 14
18 14 11 11 9 10 13 15 16 17 17 16 15 13 13 12 12 13 10 9 9 7 6 5 6 6 6 6 6 5 5 5 6 6 5 5 5 5 7 7 9 11 13 15
10 9 11 13 11 12 14 16 15 16 19 17 15 15 14 13 13 13 15 15 12 8 8 6 8 8 9 9 9 8 8 8 8 7 6 6 7 8 9 9 10 12 15 17
23 22 20 18 18 18 20 19 18 15 19 17 15 15 14 13 12 13 14 14 13 13 11 9 8 10 12 12 11 10 10 11 10 9 9 8 9 10 11 11 12 14 16 18
15 18 23 23 22 19 17 21 21 19 17 21 19 18 19 18 14 14 13 14 14 16 13 13 13 11 12 14 14 13 12 12 12 12 11 11 11 12 12 13 13 15 17 18
16 19 22 26 25 24 22 20 20 23 23 22 22 21 22 22 20 18 19 17 18 18 16 15 14 16 13 15 16 15 14 14 13 13 13 13 13 14 14 15 15 17 18 19
19 21 24 25 27 27 26 25 23 21 24 25 26 25 25 24 23 22 22 20 22 18 17 16 18 18 17 16 17 17 17 16 15 15 15 15 15 16 16 17 17 18 19 21
25 25 24 22 20 21 22 25 27 27 27 27 26 26 26 25 22 20 20 20 21 20 19 19 15 19 22 19 18 18 18 17 17 16 17 17 17 17 18 19 19 20 21 23
22 23 23 21 21 21 20 21 23 24 26 28 30 30 28 23 22 19 17 19 21 21 23 20 21 21 24 24 22 20 19 19 18 18 18 18 18 19 20 20 21 22 23 24
17 17 16 14 15 15 15 16 18 20 22 23 22 23 24 22 22 20 21 20 20 22 22 25 22 25 25 29 28 23 21 20 20 19 19 20 20 20 21 22 23 23 24 25
7 9 11 11 10 10 12 12 12 14 16 20 22 24 23 24 24 25 23 20 23 21 23 25 23 25 26 31 33 28 26 23 21 22 23 21 20 22 23 24 24 25 26 27
8 10 11 8 5 2 1 4 6 8 10 11 14 19 21 23 27 25 26 24 22 22 25 28 29 31 31 30 34 33 29 27 26 24 25 25 21 23 25 25 25 25 26 27
7 7 7 6 5 5 7 9 10 10 10 8 5 6 11 17 21 24 26 24 23 23 24 25 27 27 28 29 27 28 31 30 30 27 25 22 23 24 24 26 27 27 31 37
5 4 4 4 5 6 8 9 10 11 11 12 12 12 10 10 10 13 16 18 18 18 18 15 15 15 16 16 18 21 25 28 29 29 27 27 27 27 28 28 30 36 38 35
10 11 12 13 14 15 16 17 18 19 21 23 23 22 20 18 15 14 12 12 13 13 15 18 20 20 21 22 22 23 24 27 29 31 30 28 29 31 32 32 36 35 34 33
17 18 19 20 21 21 22 22 23 25 23 20 18 18 19 20 21 22 21 20 19 20 22 23 23 21 22 21 22 23 25 29 31 32 31 33 33 34 33 34 35 32 30 30
15 17 19 20 21 21 21 19 18 16 16 16 16 16 16 16 17 18 21 24 26 27 27 27 26 26 26 25 24 26 27 28 29 30 32 32 34 33 32 32 32 30 30 29
16 17 18 18 17 17 16 16 16 15 15 15 16 16 16 17 17 18 19 20 21 22 24 27 29 30 31 29 28 30 31 29 29 29 29 31 32 31 31 30 31 29 29 28

GFSNGP_700_spd_072.txt.gz
Wind_Speed
11 8 8 9 21 26 30 34 24 34 34 25 19 15 9 15 16 16 15 15 16 18 20 22 22 22 23 22 22 20 18 17 16 15 15 16 17 18 18 18 18 16 15 15
15 14 14 16 16 21 32 33 32 30 22 20 19 14 15 18 17 18 17 17 17 19 19 18 20 22 20 19 19 17 15 14 13 14 14 14 15 16 15 13 14 12 11 10
6 10 14 16 27 29 29 31 33 41 33 26 23 24 23 20 18 14 16 18 19 19 17 17 17 16 17 18 18 17 16 15 14 14 13 12 11 9 10 10 9 9 9 7
4 4 2 12 11 12 20 26 31 30 26 29 26 22 24 22 19 18 20 19 19 18 17 16 16 16 16 17 20 19 18 16 15 13 11 10 9 8 8 7 6 6 5 6
5 8 18 18 15 15 14 19 18 24 21 19 30 23 25 24 21 18 19 18 17 16 16 16 17 17 18 18 19 20 19 17 14 12 11 11 9 7 8 7 7 8 8 6
8 4 5 3 5 6 9 19 13 13 23 24 30 36 33 26 23 19 16 14 14 13 14 14 14 14 15 15 15 17 17 16 14 13 10 10 11 10 9 8 7 6 5 3
21 10 13 12 9 5 6 4 5 8 15 25 25 17 12 16 15 14 13 13 13 11 10 10 10 10 10 11 10 11 13 13 12 11 13 13 11 10 8 7 6 5 5 4
18 11 12 8 12 13 6 6 4 2 13 20 18 16 15 14 13 11 11 10 12 11 9 8 7 8 7 7 9 11 11 11 13 14 13 12 10 9 8 8 7 6 5 6
14 8 7 4 10 6 9 4 4 3 7 11 13 13 12 13 14 13 12 11 12 9 9 8 6 5 4 4 6 8 10 13 14 13 11 10 9 9 9 8 8 7 7 8
11 13 15 13 9 6 5 9 10 8 8 9 14 18 18 16 14 14 13 12 12 8 8 7 7 6 5 4 6 8 11 11 11 11 11 11 10 10 9 9 9 9 10 10
23 21 16 12 10 7 8 10 11 13 13 13 14 15 13 17 18 15 14 13 12 11 8 8 7 7 7 7 8 9 11 12 12 13 13 12 11 11 11 11 11 12 12 12
24 17 15 14 17 15 10 10 10 12 14 14 16 16 17 16 15 13 16 17 18 15 15 15 10 9 10 9 11 12 14 14 14 15 14 13 13 12 12 13 13 14 14 14
19 20 20 15 12 12 12 11 11 13 15 16 16 18 19 18 16 15 14 15 16 17 17 16 16 12 11 12 14 15 16 16 15 16 15 15 14 14 14 15 15 15 16 16
9 13 22 23 22 21 19 19 20 19 18 17 18 19 20 22 18 17 17 16 15 15 15 15 14 12 14 15 14 16 17 17 17 18 17 17 16 16 16 17 17 17 18 18
18 17 16 15 17 20 22 24 24 23 21 20 19 20 24 23 23 22 22 22 19 17 17 17 13 13 17 16 18 17 18 18 18 19 19 19 18 18 19 19 18 19 20 20
15 13 15 17 18 20 23 25 25 26 27 27 25 23 21 25 24 25 22 22 21 19 20 21 21 19 20 19 19 21 20 20 20 20 21 21 21 21 20 20 20 21 22 22
21 19 19 21 22 22 23 24 24 24 26 27 27 26 26 24 25 26 25 24 24 23 22 22 21 25 24 24 20 22 25 22 21 22 22 23 24 23 22 22 22 23 24 24
26 28 29 28 24 23 23 25 26 26 24 22 22 24 26 29 29 28 28 27 25 23 21 19 20 26 27 28 24 22 21 22 24 24 24 25 25 25 23 24 25 25 25 26
24 21 19 21 22 21 22 24 20 18 18 19 22 23 25 26 26 27 29 29 28 25 24 26 25 25 28 28 29 30 29 24 26 28 30 29 29 30 31 29 26 27 28 27
18 17 14 14 17 16 15 14 12 12 15 17 16 16 18 21 22 22 22 21 23 25 26 27 25 23 26 27 29 31 31 32 32 33 34 35 33 31 31 29 26 28 28 27
7 8 9 9 8 7 7 7 8 9 5 1 4 6 8 11 14 17 19 21 23 25 26 28 26 30 28 28 30 29 30 31 31 32 35 35 33 35 34 31 27 26 26 27
7 7 8 8 8 5 4 4 5 6 7 7 8 9 9 9 8 8 13 18 21 22 24 26 25 26 25 25 26 27 29 32 34 36 37 35 32 33 33 32 31 29 27 28
3 2 1 2 3 5 7 8 11 12 13 14 15 16 17 17 17 17 16 14 12 16 18 20 24 25 25 26 25 23 21 21 21 22 24 25 28 31 31 29 32 33 31 31
5 7 8 10 12 14 15 17 18 19 20 20 20 20 20 20 19 18 18 20 19 18 16 15 16 17 17 18 19 20 21 21 21 21 21 21 22 25 28 31 33 33 34 35
10 12 14 16 17 18 18 18 19 19 19 18 17 17 16 16 16 16 16 16 18 20 22 23 22 22 22 23 24 25 26 26 26 26 25 26 27 27 28 29 30 33 35 36
10 12 14 15 15 16 16 16 16 16 16 16 16 15 15 15 14 15 15 16 16 17 18 20 21 23 25 27 28 30 31 31 31 31 30 29 29 30 30 31 32 34 34 34
17 18 19 17 15 14 14 15 15 16 16 16 17 17 16 16 16 16 16 16 17 17 18 18 19 20 21 22 23 25 27 28 29 30 30 32 32 34 35 33 31 31 33 32

GFSNGP_700_spd_075.txt.gz
Wind_Speed
20 17 14 15 19 28 42 42 30 30 37 35 30 29 18 16 14 19 19 17 14 13 16 18 21 25 26 25 25 26 26 25 22 21 20 19 18 18 19 19 19 20 19 18
18 18 19 21 19 20 28 32 42 43 46 33 24 23 22 25 20 18 16 14 15 17 18 19 21 23 24 24 24 23 21 20 19 18 17 17 17 18 18 18 17 16 15 15
11 14 15 18 30 32 31 32 34 39 30 31 25 20 22 23 17 17 14 15 16 17 19 19 19 20 20 19 18 19 19 19 18 17 16 16 17 16 13 13 13 12 12 11
6 4 3 14 17 14 22 30 36 35 32 27 22 25 26 23 20 18 15 16 17 18 20 19 19 19 19 18 18 18 20 20 19 18 18 17 15 13 12 11 11 11 9 8
6 10 17 22 17 16 18 22 17 21 24 25 26 24 30 26 25 21 19 18 18 19 18 18 19 19 19 20 20 19 19 22 20 19 19 17 15 13 13 11 9 8 9 11
10 4 5 2 2 6 11 18 11 16 18 19 26 28 26 20 20 21 20 19 18 17 17 18 18 18 18 17 17 18 20 21 20 20 17 15 15 12 11 11 9 11 12 11
20 11 12 11 11 9 5 6 9 8 10 15 26 20 16 22 21 21 19 18 17 17 17 16 15 14 13 13 13 13 12 14 17 17 15 13 13 13 12 12 12 12 12 10
21 12 13 6 8 11 5 7 6 7 9 12 17 16 13 15 17 16 15 13 13 15 15 14 12 11 11 11 11 11 11 11 12 13 13 14 13 13 14 13 13 12 11 10
15 11 9 7 6 5 8 10 5 5 2 3 8 12 13 16 20 13 11 15 13 16 11 11 10 9 8 8 8 9 11 12 12 14 15 14 15 16 15 14 13 12 11 11
16 16 16 12 9 7 5 5 7 6 6 5 11 16 16 15 14 15 17 16 15 15 12 9 9 8 7 6 5 5 7 10 12 14 14 15 16 16 15 15 14 13 12 13
23 20 14 9 7 9 12 8 9 11 11 9 9 10 10 15 21 19 18 18 15 15 13 10 10 9 9 8 7 7 8 10 12 14 15 16 17 16 16 15 15 15 14 15
19 12 12 10 11 13 12 10 11 9 10 11 12 12 13 14 14 14 21 21 17 18 17 15 15 13 10 11 11 12 13 13 14 15 16 17 18 17 17 17 17 17 17 17
14 13 15 16 13 9 11 11 10 10 10 12 14 15 15 16 17 15 14 14 15 17 18 19 18 15 14 13 14 15 16 16 16 16 17 19 19 19 19 19 19 19 19 19
11 11 14 17 17 16 14 13 15 16 16 16 15 15 16 17 17 19 19 18 17 17 17 16 16 13 14 15 15 15 18 19 18 19 19 20 21 21 21 21 21 21 21 21
13 13 15 14 12 14 17 20 21 20 20 20 20 18 17 18 20 22 22 22 21 21 20 17 16 16 17 17 17 18 19 18 20 22 22 23 23 23 23 23 23 23 23 22
13 15 15 16 16 15 15 17 19 21 22 23 22 24 25 23 21 21 25 24 24 23 22 25 22 20 23 24 20 20 18 19 22 23 24 25 25 25 26 25 25 25 24 25
14 10 13 15 15 17 18 20 21 23 24 24 25 26 26 27 24 23 23 26 25 23 23 21 21 23 24 28 30 25 26 24 25 26 25 26 27 27 28 28 27 26 25 27
17 19 22 22 21 25 26 24 23 24 27 28 27 26 24 23 23 25 27 27 27 27 25 25 25 24 24 26 28 29 26 26 27 25 26 27 27 29 30 30 28 27 29 31
26 26 26 27 23 21 21 21 22 23 23 20 21 22 23 24 24 25 27 28 29 29 29 30 28 28 26 28 28 31 33 30 30 28 31 28 31 31 32 32 32 36 36 34
18 19 18 18 18 17 15 19 20 17 14 12 15 14 15 17 20 23 25 24 26 27 28 31 31 29 28 29 29 31 31 32 33 33 34 34 33 34 35 35 34 34 32 30
9 11 11 11 9 9 9 8 9 8 9 9 7 5 4 5 8 11 15 19 21 23 23 24 27 29 30 30 32 29 29 33 35 35 36 37 37 36 36 35 35 35 34 32
8 9 8 6 6 5 4 3 2 3 6 8 10 11 11 11 12 12 11 10 13 18 22 24 26 28 30 30 30 30 30 29 30 31 33 35 37 38 37 36 35 35 33 32
4 4 3 2 1 3 5 6 9 11 12 14 15 16 17 17 17 17 17 17 18 17 15 17 21 22 23 25 27 27 28 29 30 29 28 26 26 26 27 28 31 33 33 32
4 4 6 8 9 11 13 15 16 16 16 17 18 17 17 17 17 18 18 18 18 20 21 21 19 18 18 19 20 20 21 22 23 24 25 25 25 25 26 26 26 27 31 34
7 8 8 9 11 12 13 14 15 16 16 16 15 14 14 14 14 13 14 15 15 16 17 19 22 24 24 24 24 25 25 26 27 28 29 29 29 30 29 29 29 30 31 33
9 12 15 16 17 16 15 14 14 14 14 14 14 14 14 14 13 13 14 14 14 15 15 16 18 19 20 22 24 26 27 29 31 31 32 32 32 32 31 31 31 32 33 34
15 17 19 20 19 16 15 14 13 14 14 15 16 16 16 16 16 16 16 16 17 17 17 18 19 19 20 21 22 23 24 25 26 27 26 26 28 30 29 29 31 32 36 39

GFSNGP_700_spd_078.txt.gz
Wind_Speed
16 17 19 18 17 20 36 43 35 34 36 36 34 32 34 32 21 13 15 18 17 15 14 15 16 18 21 24 26 27 27 26 26 25 24 23 22 21 19 19 20 20 20 19
19 17 19 23 23 22 25 29 40 46 51 37 38 37 35 27 28 28 18 16 15 15 15 16 18 20 21 24 23 24 25 25 23 21 20 19 18 17 18 19 19 19 18 16
18 21 21 19 31 31 33 33 32 39 30 29 24 24 19 21 18 19 13 15 15 16 17 19 20 21 21 21 21 21 21 21 20 19 18 17 17 17 17 17 16 14 14 13
7 7 4 14 17 16 21 24 27 35 35 32 28 22 21 23 19 15 15 17 16 17 18 19 20 21 20 20 21 21 20 20 20 20 18 17 18 17 16 15 14 12 12 12
7 10 18 21 19 19 19 21 17 21 19 18 19 26 30 24 27 19 17 19 18 18 18 19 20 20 20 21 22 22 22 21 21 21 20 18 17 17 15 14 13 12 11 10
14 6 5 4 5 4 9 17 7 10 13 16 19 25 23 21 20 23 23 23 19 19 19 19 18 19 19 21 21 21 21 21 22 21 21 20 18 17 15 14 12 10 10 10
23 13 14 17 14 11 7 4 8 9 10 11 15 16 11 12 15 17 20 20 20 21 18 18 18 18 17 18 18 18 17 17 17 19 20 18 17 16 13 12 12 12 12 12
26 15 13 16 13 15 9 7 7 9 10 11 10 10 10 11 17 17 18 17 14 15 16 16 17 16 15 15 15 15 15 16 14 14 15 16 15 14 14 13 14 13 13 13
16 13 16 9 7 7 5 7 8 6 8 6 3 8 10 11 12 15 16 19 12 16 13 12 12 13 13 12 12 11 12 13 12 12 13 14 15 14 14 15 15 15 15 15
16 16 17 9 9 5 7 6 5 5 5 4 3 6 11 14 15 15 17 14 15 14 15 14 11 10 11 11 10 9 8 9 11 12 13 14 14 15 14 15 16 16 16 16
21 19 15 11 10 9 10 13 10 10 10 9 7 5 5 12 14 14 16 19 20 17 16 14 10 10 10 10 10 10 8 6 7 9 11 13 14 15 16 16 17 17 17 17
21 14 11 9 11 13 12 10 9 9 8 8 8 9 8 9 11 12 15 22 23 20 18 17 16 14 13 12 11 11 11 10 10 11 14 15 15 16 16 17 19 19 19 19
19 14 15 13 14 12 9 13 11 9 9 8 9 10 11 12 12 13 14 14 12 17 17 18 18 18 18 15 14 13 14 14 14 14 15 17 17 17 18 19 20 21 22 22
21 16 15 14 16 16 13 10 12 15 13 13 13 15 14 13 14 15 15 17 16 16 17 17 17 16 17 15 15 15 15 16 16 18 19 20 20 21 21 21 22 23 24 23
17 12 8 11 13 13 14 17 19 19 19 20 18 17 18 18 16 17 18 20 19 18 20 20 19 18 18 18 16 15 17 18 18 20 22 23 23 24 24 24 23 24 25 25
18 14 11 11 11 14 14 14 14 16 18 20 21 21 21 21 22 22 22 22 22 21 24 24 22 24 25 24 22 24 20 20 19 19 23 23 24 26 26 26 26 26 26 27
20 17 15 12 9 11 14 16 17 19 20 22 23 24 25 24 24 25 25 25 26 23 23 22 21 23 23 21 24 26 26 28 26 27 24 25 26 27 28 28 28 29 28 30
19 18 17 17 16 16 18 21 24 25 25 25 26 28 30 29 26 24 24 24 26 26 24 25 26 27 26 25 25 25 26 27 28 27 27 26 27 28 28 28 29 31 30 31
17 18 21 23 24 24 26 25 22 21 23 24 25 25 21 21 23 23 25 26 27 27 30 31 30 29 28 26 27 28 27 27 27 32 33 29 32 29 31 30 31 32 32 32
23 24 24 25 25 22 20 20 19 19 20 19 15 15 16 15 16 18 21 26 28 28 27 28 29 29 30 31 32 30 28 29 29 33 33 34 35 36 36 37 35 35 35 34
11 13 15 16 14 12 10 10 9 7 6 6 6 8 9 8 7 7 11 12 14 16 20 23 24 25 26 27 30 31 32 32 31 30 29 32 35 35 36 37 38 38 36 36
4 4 6 6 5 5 5 3 2 1 4 6 8 10 12 14 15 15 16 15 16 13 13 17 21 24 26 27 28 29 31 32 31 31 30 30 30 31 33 34 35 36 36 37
8 7 5 4 2 1 3 6 8 10 12 14 15 16 18 19 20 20 20 19 20 20 20 20 19 18 20 22 24 25 25 27 28 28 29 30 31 30 29 28 28 28 29 30
3 1 3 5 7 9 11 12 13 14 14 15 16 17 17 16 16 16 16 17 17 18 18 18 20 22 23 22 22 22 23 24 24 24 24 24 24 25 25 26 26 27 27 28
4 6 6 8 11 13 14 14 14 14 13 13 14 15 15 15 15 14 14 14 14 14 15 15 16 17 19 21 24 25 26 27 28 28 29 30 30 31 33 33 34 34 33 31
7 9 12 13 14 14 16 15 14 13 13 12 13 14 14 15 15 15 15 15 15 15 15 16 16 16 17 18 19 20 22 23 24 25 25 26 27 28 29 29 29 31 33 33
14 15 16 17 18 18 17 15 13 13 13 15 16 16 16 16 16 16 16 16 17 17 17 18 18 19 19 20 21 21 22 23 24 24 25 25 26 26 27 28 29 29 30 30

GFSNGP_700_spd_081.txt.gz
Wind_Speed
16 10 10 12 14 15 36 40 30 33 39 38 36 33 31 29 27 27 15 13 13 16 16 18 18 17 19 20 21 23 25 26 27 27 27 28 28 27 26 25 23 21 20 20
14 16 17 21 21 21 24 26 34 37 42 27 27 28 29 24 28 27 22 23 20 18 18 16 15 16 18 20 22 23 24 24 25 26 26 24 25 23 22 20 19 19 19 18
7 13 16 17 29 30 32 32 33 39 31 29 27 23 14 12 16 21 18 19 21 18 16 16 16 18 19 22 23 23 23 22 23 23 23 22 21 19 18 18 17 17 15 14
7 8 5 11 16 14 18 22 26 29 25 21 19 20 24 19 17 17 16 18 20 17 17 18 18 19 21 22 22 23 23 23 23 22 21 21 20 18 18 17 16 14 14 13
6 10 16 20 15 16 17 24 20 21 19 19 19 19 20 24 24 22 19 17 19 18 19 19 18 19 20 20 21 23 23 23 24 24 22 21 20 18 17 16 15 14 14 13
11 5 5 1 4 4 7 15 7 8 11 11 15 20 15 16 24 22 23 23 25 23 18 18 18 19 19 20 21 21 22 22 22 22 22 21 21 20 18 16 16 15 13 12
22 11 10 18 18 19 10 7 7 7 10 12 14 15 15 15 17 22 23 27 24 23 20 19 20 20 20 20 20 19 19 19 19 19 19 21 21 20 18 16 15 14 13 13
24 13 13 20 16 18 12 12 11 9 10 11 11 11 10 14 13 15 16 21 22 21 19 17 18 19 19 18 16 16 16 16 16 17 17 16 17 16 15 14 14 14 14 13
14 9 9 7 7 5 9 8 10 9 7 10 7 3 9 9 11 16 15 16 18 18 17 15 16 13 14 14 12 13 13 13 13 12 12 12 13 14 14 15 15 14 14 13
16 14 13 13 9 10 5 7 5 6 6 5 6 1 4 8 9 12 14 16 17 20 16 15 16 16 11 10 10 10 11 10 10 10 11 11 11 13 14 14 15 15 14 13
23 18 14 12 7 11 13 12 12 11 9 9 7 4 2 4 9 11 14 17 21 18 21 18 15 13 12 10 9 9 10 9 7 6 8 10 12 13 14 14 15 16 15 15
19 14 11 5 9 12 14 12 10 7 8 7 6 6 5 5 6 8 10 11 16 20 19 20 19 16 14 14 11 10 11 10 10 9 9 11 13 14 15 16 17 17 18 18
23 14 14 13 10 10 10 10 14 12 9 9 8 8 8 8 9 10 11 12 14 12 14 22 23 21 17 17 16 14 13 12 12 12 13 14 15 15 17 18 18 20 20 20
22 17 15 14 13 11 11 10 8 10 10 11 11 12 12 13 13 13 14 14 13 15 15 15 16 16 16 16 15 15 15 15 14 14 15 16 17 18 19 19 20 22 22 22
18 18 15 15 13 10 10 10 17 16 16 16 17 19 19 16 16 17 16 16 16 17 17 18 19 19 19 17 16 17 16 13 14 16 18 19 19 20 20 21 22 23 24 24
17 21 15 14 13 10 11 11 10 13 16 18 19 20 21 20 20 20 21 22 22 21 20 22 23 23 22 22 22 20 20 20 20 19 17 15 15 18 21 23 24 25 25 25
11 16 18 15 14 14 12 11 11 13 14 17 19 22 24 25 25 25 24 23 23 24 25 25 23 26 24 23 22 20 22 24 25 25 24 25 20 24 23 24 23 26 27 29
15 20 22 17 16 16 14 14 16 17 20 24 25 24 25 26 26 26 26 26 24 23 25 27 26 25 25 25 25 23 23 25 24 23 27 26 25 24 23 23 23 25 26 29
12 12 14 15 16 18 20 22 23 25 23 20 21 22 24 23 18 17 18 20 22 25 27 27 27 29 28 28 28 27 25 24 24 24 25 24 28 29 33 31 29 28 30 32
14 16 18 21 25 27 26 25 23 20 18 18 17 13 11 10 10 12 14 14 16 19 25 30 30 29 29 30 31 31 30 29 30 30 28 29 26 27 32 30 32 35 36 34
12 15 17 17 16 15 14 12 11 9 7 4 2 2 4 6 8 10 12 13 14 15 15 16 17 22 23 25 26 26 26 27 28 30 30 31 32 30 29 29 30 33 34 34
6 4 4 4 4 4 4 4 2 2 4 6 9 11 13 15 16 17 19 20 20 18 19 16 17 16 17 20 22 24 25 26 27 28 29 29 29 29 29 29 29 29 30 31
9 8 7 5 3 1 2 4 6 9 11 13 15 16 17 17 17 18 17 16 17 18 18 20 20 20 20 20 19 19 20 22 23 24 24 25 26 27 27 27 27 26 26 26
6 4 1 2 3 5 7 8 10 11 12 13 14 15 15 15 15 15 15 15 16 16 15 15 19 19 18 19 21 22 23 23 22 22 22 22 23 23 23 24 25 25 26 27
1 1 1 4 7 9 10 11 12 12 11 11 11 12 13 14 14 15 15 15 15 15 14 14 14 14 15 15 16 17 19 20 21 22 24 25 26 27 28 29 30 31 32 32
5 5 7 9 10 11 12 12 11 10 10 10 11 12 14 15 15 14 14 15 15 15 15 16 16 16 16 16 16 17 18 19 19 20 21 22 23 24 25 26 27 28 28 28
12 13 13 13 14 13 14 12 11 11 11 11 13 14 15 15 15 15 15 15 16 16 17 17 17 18 18 18 19 19 20 20 21 22 23 23 24 25 26 26 27 27 28 28